Regional Weather Roundup
Issued by NWS

Home | Current Version | Previous Version | Graphics & Text | Print | Product List | Glossary On
Versions: 1 2 3 4 5 6 7 8 9 10 11 12 13 14 15 16 17 18 19 20 21 22 23 24 25 26 27 28 29 30 31 32 33 34 35 36 37 38 39 40 41 42 43 44 45 46 47 48 49 50
049
ASUS45 KSLC 220010
RWRUT

UTAH REGIONAL WEATHER ROUNDUP
NATIONAL WEATHER SERVICE SALT LAKE CITY UT
600 PM MDT THU SEP 21 2017

UTZ001>011-023>025-220100-

NORTHERN UTAH

CITY           SKY/WX    TMP DP  RH WIND       PRES   REMARKS
BRIGHAM CITY   CLOUDY    44  37  73 NW16G24   29.77R
HILL AFB       LGT RAIN  45  41  87 NW12G20   29.74R
LOGAN          CLOUDY    45  38  76 NW9       29.76R
OGDEN          CLOUDY    45  40  82 NW14      29.74R
SALT LAKE CITY CLOUDY    51  41  68 NW15      29.75R
TOOELE VALLEY  CLOUDY    43  41  93 NW13G21   29.80R FOG
WENDOVER       LGT RAIN  43  39  86 CALM      29.81S
HEBER CITY     PTSUNNY   63  36  36 SW9       29.59R
WEST JORDAN    CLOUDY    46  45  97 NW15      29.76R

$$

UTZ011>015-024>027-220100-

CENTRAL/NORTHEAST UTAH

CITY           SKY/WX    TMP DP  RH WIND       PRES   REMARKS
PROVO AIRPORT  LGT RAIN  54  44  69 NW28G35   29.70R
MOAB/CANYONLAN SUNNY     84  23  10 S29G41    29.60F
DELTA          CLOUDY    45  39  81 NW18      29.72R
PRICE          CLOUDY    75  30  19 S30G39    29.64S
ROOSEVELT      SUNNY     77  27  15 S18G29    29.62S
VERNAL         SUNNY     77  25  14 S26G41    29.62F

$$

UTZ013>016-019>022-027-220100-

SOUTHERN UTAH

CITY           SKY/WX    TMP DP  RH WIND       PRES   REMARKS
BRYCE CANYON   MOSUNNY   64  24  21 S32G41    29.85R
CEDAR CITY     MOSUNNY   70  33  25 S30G55    29.68R
MILFORD        PTSUNNY   72  33  24 SW37G44   29.63R
HANKSVILLE     MOSUNNY   82  27  13 S18G28    29.61S
BLANDING         N/A     76  23  14 S23G38    29.87F

$$

REGIONAL REPORTS     COLORADO/ARIZONA

CITY           SKY/WX    TMP DP  RH WIND       PRES   REMARKS
CRAIG, CO      SUNNY     76  16  10 SW17G30   29.73S
GRAND JUNCTION CLOUDY    84  21  10 S29G37    29.66F
RIFLE, CO      SUNNY     81  16   9 S23G32    29.73R
MONTROSE, CO   SUNNY     79  20  11 SW22G33   29.77R
CORTEZ, CO     SUNNY     75  20  12 SW20G26   29.85S
PAGE, AZ       SUNNY     83  26  12 SW15G29   29.65S
GRAND CANYON   SUNNY     68  31  25 SW31G41   29.88F
KINGMAN, AZ    SUNNY     80  38  22 S25G35    29.73R
FLAGSTAFF, AZ  SUNNY     64  27  24 SW21G38   29.95F

$$

REGIONAL REPORTS    NEVADA/IDAHO/WYOMING

CITY           SKY/WX    TMP DP  RH WIND       PRES   REMARKS
LAS VEGAS, NV  MOSUNNY   77  47  34 SW20G37   29.64R
ELY, NY        SNOW      32  32 100 NE5       29.85F VSB 1/2 WCI  27
ELKO, NV       LGT RAIN  39  35  86 E5        29.81S
POCATELLO, ID  LGT RAIN  42  39  89 E3        29.80S
BURLEY, ID     LGT RAIN  45  41  86 NW5       29.78F
FORT BRIDGER,  MOCLDY    63  36  37 S12       29.70S
EVANSTON, WY   CLOUDY    53  46  77 S18       29.69R
ROCK SPRINGS,  CLOUDY    69  21  16 S29G40    29.67S
KEMMERER, WY   RAIN      50  45  81 W6        29.72S

$$




USA.gov is the U.S. government's official web portal to all federal, state and local government web resources and services.